DW8548 Weather Reports


Display with metric or nautical units.
time (UTC)temp
F
wind
direction
speed
MPH
gust
MPH
rain 1hr
in
rain 24hr
in
rain mn
in
humidity
%
barometer
mb
20260903050105 62 341 2.0 5.0 0.01 0.24 0.07 90 1016.4
20260903044600 61 281 1.0 5.0 0.01 0.24 0.07 91 1016.8
20260903043110 60 324 1.0 7.0 0.02 0.24 0.07 89 1017.3
20260903041601 62 335 1.0 8.0 0.00 0.22 0.05 89 1017.6
20260903040105 62 286 0.0 7.0 0.00 0.22 0.05 90 1017.6
20260903034605 60 360 1.0 8.0 0.00 0.22 0.05 90 1018.0
20260903033103 61 19 1.0 6.0 0.00 0.22 0.04 89 1017.9
20260903031557 61 5 3.0 10.0 0.00 0.22 0.04 84 1018.0
20260903030110 62 343 0.0 3.0 0.00 0.22 0.04 84 1018.0
20260903024600 63 0 0.0 4.0 0.00 0.22 0.04 83 1018.1
20260903023108 63 0 1.0 5.0 0.00 0.22 0.04 85 1018.4
20260903021602 61 19 0.0 3.0 0.00 0.22 0.04 88 1018.6
20260903014603 61 14 1.0 6.0 0.00 0.22 0.04 89 1019.0
20260903013103 61 0 0.0 4.0 0.00 0.22 0.04 91 1019.0
20260903011610 60 0 0.0 4.0 0.00 0.22 0.04 93 1019.1
20260903010108 59 19 0.0 2.0 0.00 0.22 0.04 94 1019.1
20260903004625 58 14 0.0 5.0 0.00 0.22 0.04 94 1018.8
20260903003107 57 0 0.0 3.0 0.00 0.22 0.04 95 1018.8
20260903001604 58 0 0.0 1.0 0.00 0.22 0.04 95 1019.0
20260902234601 56 0 0.0 1.0 0.00 0.22 0.04 95 1018.9
20260902233105 55 0 0.0 1.0 0.00 0.22 0.04 95 1018.9
20260902231607 55 0 0.0 1.0 0.00 0.22 0.04 95 1018.9
20260902230106 54 0 0.0 1.0 0.00 0.22 0.04 95 1018.7
20260902224603 54 0 0.0 1.0 0.00 0.22 0.04 95 1018.5
20260902223121 53 0 0.0 0.0 0.00 0.22 0.04 95 1018.9
20260902221608 53 0 0.0 0.0 0.00 0.22 0.04 95 1018.9
20260902220112 53 0 0.0 0.0 0.00 0.21 0.03 95 1018.8
20260902214604 54 0 0.0 0.0 0.00 0.21 0.03 94 1018.9
20260902213102 55 0 0.0 1.0 0.00 0.21 0.03 95 1018.8
20260902211603 55 0 0.0 0.0 0.00 0.21 0.03 95 1018.9
20260902210100 55 0 0.0 0.0 0.00 0.21 0.03 95 1018.8
20260902204642 55 0 0.0 1.0 0.00 0.21 0.03 95 1018.7
20260902203102 55 0 0.0 1.0 0.00 0.21 0.03 95 1018.8
20260902201603 55 0 0.0 0.0 0.00 0.21 0.03 95 1018.8
20260902200103 55 0 0.0 1.0 0.00 0.21 0.03 95 1018.9
20260902194603 55 0 0.0 1.0 0.00 0.21 0.03 95 1018.9
20260902193105 56 0 0.0 2.0 0.00 0.21 0.03 94 1019.1
20260902191604 56 0 0.0 0.0 0.03 0.21 0.03 95 1019.1
20260902190105 56 0 0.0 2.0 0.03 0.21 0.03 95 1019.5
20260902184656 56 0 0.0 0.0 0.03 0.21 0.03 94 1019.7
20260902183113 56 0 0.0 1.0 0.03 0.21 0.03 94 1019.8
20260902181614 56 0 0.0 0.0 0.00 0.18 0.00 94 1020.0
20260902180109 56 0 0.0 0.0 0.00 0.17 0.00 94 1020.0
20260902174603 56 0 0.0 0.0 0.00 0.17 0.00 94 1020.0
20260902173119 56 0 0.0 0.0 0.00 0.17 0.00 94 1020.0
20260902171607 55 0 0.0 0.0 0.00 0.17 0.00 94 1020.2
20260902170104 55 0 0.0 0.0 0.00 0.17 0.00 94 1020.2
20260902164606 55 0 0.0 0.0 0.00 0.17 0.00 94 1020.2
20260902163105 55 0 0.0 0.0 0.00 0.17 0.00 94 1020.4
20260902161602 55 0 0.0 1.0 0.00 0.17 0.00 94 1020.5
20260902160104 55 0 0.0 1.0 0.00 0.17 0.00 94 1020.7
20260902154605 55 0 0.0 0.0 0.00 0.17 0.17 93 1020.8
20260902153108 55 0 0.0 0.0 0.00 0.17 0.17 94 1020.9
20260902151606 56 0 0.0 0.0 0.00 0.17 0.17 94 1021.0
20260902150105 56 0 0.0 0.0 0.00 0.17 0.17 93 1021.3
20260902144603 56 0 0.0 0.0 0.00 0.17 0.17 93 1021.4
20260902143105 56 0 0.0 0.0 0.00 0.17 0.17 93 1021.3
20260902141601 56 0 0.0 0.0 0.00 0.17 0.17 93 1021.4
20260902140101 56 0 0.0 0.0 0.00 0.17 0.17 93 1021.5
20260902134804 57 0 0.0 0.0 0.00 0.17 0.17 93 1021.6
20260902133112 57 0 0.0 0.0 0.00 0.17 0.17 93 1021.7
20260902131607 57 0 0.0 0.0 0.00 0.17 0.17 93 1021.8
20260902130115 56 0 0.0 0.0 0.00 0.16 0.16 92 1021.8
20260902124605 57 0 0.0 0.0 0.00 0.16 0.16 92 1021.8
20260902123112 57 0 0.0 0.0 0.00 0.16 0.16 92 1021.7
20260902121604 57 0 0.0 0.0 0.03 0.16 0.16 92 1021.7
20260902120104 58 0 0.0 1.0 0.07 0.16 0.16 92 1021.7
20260902114604 58 0 0.0 1.0 0.12 0.16 0.16 91 1021.6
20260902113100 58 0 0.0 2.0 0.12 0.15 0.15 91 1021.5
20260902111604 58 252 0.0 3.0 0.11 0.13 0.13 91 1021.5
20260902110106 58 5 0.0 3.0 0.07 0.08 0.08 91 1021.4
20260902104616 58 293 0.0 1.0 0.03 0.03 0.03 90 1021.3
20260902103119 58 0 0.0 3.0 0.03 0.03 0.03 89 1021.2
20260902101609 58 276 1.0 3.0 0.01 0.01 0.01 88 1021.1
20260902094601 59 285 1.0 7.0 0.00 0.00 0.00 84 1020.8
20260902093105 60 286 1.0 5.0 0.00 0.00 0.00 81 1020.7
20260902091603 60 296 1.0 4.0 0.00 0.00 0.00 80 1020.6
20260902090101 60 300 1.0 6.0 0.00 0.00 0.00 81 1020.5
20260902084603 60 279 1.0 4.0 0.00 0.00 0.00 84 1020.3
20260902083101 60 242 1.0 10.0 0.00 0.00 0.00 81 1020.2
20260902081558 62 258 3.0 9.0 0.00 0.00 0.00 76 1020.3
20260902074601 64 286 3.0 7.0 0.00 0.00 0.00 71 1020.4
20260902073059 63 254 1.0 5.0 0.00 0.00 0.00 72 1020.4
20260902071603 61 298 1.0 7.0 0.00 0.00 0.00 79 1020.4
20260902070108 61 284 2.0 8.0 0.00 0.00 0.00 78 1020.9
20260902064606 62 284 3.0 10.0 0.00 0.00 0.00 75 1020.9
20260902063119 64 313 2.0 10.0 0.00 0.00 0.00 70 1020.7
20260902061625 63 331 2.0 9.0 0.00 0.00 0.00 75 1020.6
20260902060128 64 207 2.0 10.0 0.00 0.00 0.00 68 1020.6
20260902054602 64 240 3.0 11.0 0.00 0.00 0.00 67 1020.8
20260902053113 64 245 4.0 9.0 0.00 0.00 0.00 68 1021.0
20260902051617 65 263 2.0 5.0 0.00 0.00 0.00 70 1021.2